{"data":{"norad_id":63817,"epoch":"2026-05-25T03:40:16.781664Z","epoch_age_seconds":72579,"freshness":"FRESH","line1":"1 63817U 25092P   26145.15297201  .00016175  00000+0  59577-3 0  9993","line2":"2 63817  42.9993 100.2941 0001151 266.5734  93.4986 15.27594831 60360","mean_motion":15.27594831,"eccentricity":0.0001151,"inclination_deg":42.9993,"raan_deg":100.2941,"arg_perigee_deg":266.5734,"mean_anomaly_deg":93.4986,"bstar":0.00059577,"rev_number":6036,"period_min":94.265833503596,"perigee_km":482.21496964135,"apogee_km":483.79440445771,"semimajor_km":6861.1416870495,"source":"CELESTRAK","updated_at":"2026-05-25T13:38:20.142102Z"}}